Tracking 19817 objects as of 18-Aug-2019
HD Live streaming from Space Station
objects crossing your sky now

SL-18 DEB

Track SL-18 DEB now!
10-day predictions


NORAD ID: 28956
Int'l Code: 1993-014AH
Perigee: 602.0 km
Apogee: 704.8 km
Inclination: 75.7 °
Period: 97.6 minutes
Semi major axis: 7024 km
RCS: 0.0097 m2 (small)
Launch date: March 25, 1993
Source: Commonwealth of Independent States (former USSR) (CIS)
Launch site: PLESETSK MISSILE AND SPACE COMPLEX (PKMTR)

Note: This is SATELLITE DEBRIS
aabbcc
Your satellite tracking list
Your tracking list is empty




NASA's NSSDC Master Catalog

Two Line Element Set (TLE):
1 28956U 93014AH  19227.00102455  .00001506  00000-0  21897-3 0  9997
2 28956  75.7428 329.2267 0073142 193.7744 166.1446 14.74654929811704
Source of the keplerian elements: AFSPC